Flugplatz Vettweiss-Soller (UL)

Hier findest Du alle Informationen zum Flugplatz Vettweiss-Soller (UL).

Informationen für Piloten zum Flugplatz Vettweiss-Soller

Hier findest Du alle relevanten Informationen, die Du als Pilot benötigst, um Vettweiss-Soller anzufliegen.

Flugplatz: Vettweiss-Soller ICAO-Code: UL Flugplatz
Frequenz Turm: 136,090 Mhz GAFOR Gebiet: 34
Frequenz Ground: 136,090 Mhz Mogas: nein
Platzrunde: O 1000 ft Landegebühr: -
Platzhöhe: - Sunrise: 04:20 Uhr UTC
Pisten: 14/32 - 360 m x 20 m, GRAS Sunset: 18:55 Uhr UTC

Flugwetter am Flugplatz Vettweiss-Soller

Die METAR Information stammen aus EDDK (42.55 km entfernt).

METAR Code:
2020/08/06 18:20
EDDK 061820Z VRB02KT CAVOK 30/11 Q1018 NOSIG

Flugschulen am Flugplatz Vettweiss-Soller

Am Flugplatz Vettweiss-Soller gibt es leider keine Flugschule.

Benachbarte Flugplätze und Flugschulen

Es gibt 18 weitere Flugplätze in einem Umkreis von 50 km um den Flugplatz Vettweiss-Soller.

Jetzt anmelden

Passwort vergessen

Umfrage Archiv

Wären Rettungsgeräte keine Pflicht mehr, würdet Ihr Euer UL trotzdem mit einem ausstatten?

Ja
83.5 %
Nein
16.5 %
Stimmen: 260 | Diskussion
Anzeige: Roland Aircraft
Statistik Alle Mitglieder

Aktuell sind 47 Besucher online, davon 4 Mitglieder und 43 Gäste.


Mitglieder online:
klausm  madie73  stefanf79  cbk 

Anzeige: VFR Sprechfunk Simulator


Anzeige: Pocket FMS